St. Joseph, KS

7:26 PM CDT on September 25, 2017 (GMT -0500)
Rosecrans Memorial

Weather History for KSTJ - June, 2014

Change the Weather History Date:

Thursday, June 26, 2014

  Actual Average Record
Temperature  
Mean Temperature 79 °F 76 °F  
Max Temperature 88 °F 86 °F 103 °F (1936)
Min Temperature 70 °F 66 °F 50 °F (1974)
Degree Days  
Heating Degree Days 0 0  
Month to date heating degree days 1 6  
Since 1 June heating degree days 1 6  
Since 1 July heating degree days 6270 5456  
Cooling Degree Days 14 11  
Month to date cooling degree days 228 223  
Year to date cooling degree days 389 336  
Since 1 June cooling degree days 228 223  
Growing Degree Days 29 (Base 50)    
Moisture  
Dew Point 69 °F    
Average Humidity 72    
Maximum Humidity 90    
Minimum Humidity 53    
Precipitation  
Precipitation 0.04 in 0.10 in 2.58 in (1966)
Month to date precipitation 6.83 3.78  
Year to date precipitation 14.60 16.73  
Sea Level Pressure  
Sea Level Pressure 29.88 in    
Wind  
Wind Speed 9 mph (SSE)    
Max Wind Speed 21 mph    
Max Gust Speed 32 mph    
Visibility 10 miles    
Events Thunderstorm    
T = Trace of Precipitation, MM = Missing Value Source: NWS Daily Summary

Daily Weather History Graph

Daily Weather History Graph

Search for Another Location

Airport or City:

Trip Planner

Search our weather history database for the weather conditions in past years. The results will help you decide how hot, cold, wet, or windy it might be!

Date:

Astronomy

Jun. 26, 2014 Rise Set
Actual Time 5:53 AM CDT 8:51 PM CDT
Civil Twilight 5:20 AM CDT 9:24 PM CDT
Nautical Twilight 4:39 AM CDT 10:05 PM CDT
Astronomical Twilight 3:50 AM CDT 10:53 PM CDT
Moon 5:33 AM CDT 8:13 PM CDT
Length of Visible Light 16h 03m
Length of Day
14h 58m
Waning Crescent, 0% of the Moon is Illuminated
Jun 26
Waning Crescent
Jun 27
New
Jul 5
First Quarter
Jul 12
Full
Jul 18
Last Quarter

Hourly Weather History & Observations

Time (CDT) Temp. Heat Index Dew Point Humidity Pressure Visibility Wind Dir Wind Speed Gust Speed Precip Events Conditions
12:53 AM 73.9 °F - 66.9 °F 79% 29.96 in 10.0 mi South 6.9 mph - N/A   Mostly Cloudy
1:53 AM 73.9 °F - 68.0 °F 82% 29.96 in 10.0 mi SSE 3.5 mph - N/A   Mostly Cloudy
2:53 AM 73.0 °F - 68.0 °F 84% 29.94 in 10.0 mi South 6.9 mph - N/A   Clear
3:53 AM 72.0 °F - 68.0 °F 87% 29.94 in 10.0 mi SE 3.5 mph - N/A   Clear
4:53 AM 71.1 °F - 66.9 °F 87% 29.93 in 10.0 mi SE 5.8 mph - N/A   Clear
5:53 AM 70.0 °F - 66.9 °F 90% 29.92 in 10.0 mi SE 5.8 mph - N/A   Clear
6:53 AM 71.1 °F - 66.9 °F 87% 29.92 in 10.0 mi SSE 6.9 mph - N/A   Clear
7:53 AM 72.0 °F - 68.0 °F 87% 29.95 in 10.0 mi SSE 5.8 mph - N/A   Mostly Cloudy
8:53 AM 75.9 °F - 69.1 °F 79% 29.96 in 10.0 mi South 8.1 mph - N/A   Partly Cloudy
9:53 AM 79.0 °F - 71.1 °F 77% 29.94 in 10.0 mi South 10.4 mph - N/A   Clear
10:53 AM 81.0 °F 84.9 °F 71.1 °F 72% 29.92 in 10.0 mi South 12.7 mph - N/A   Clear
11:53 AM 84.9 °F 90.7 °F 72.0 °F 65% 29.91 in 10.0 mi North - - N/A   Clear
12:53 PM 84.9 °F 90.1 °F 71.1 °F 63% 29.89 in 10.0 mi SSE 16.1 mph - N/A   Scattered Clouds
1:53 PM 86.0 °F 90.7 °F 70.0 °F 59% 29.88 in 10.0 mi South 16.1 mph 20.7 mph N/A   Scattered Clouds
2:53 PM 88.0 °F 92.1 °F 69.1 °F 53% 29.84 in 10.0 mi South 16.1 mph 21.9 mph N/A   Partly Cloudy
3:53 PM 87.1 °F 90.6 °F 68.0 °F 53% 29.83 in 10.0 mi South 17.3 mph - N/A   Partly Cloudy
4:53 PM 86.0 °F 89.4 °F 68.0 °F 55% 29.81 in 10.0 mi SSE 16.1 mph - N/A   Scattered Clouds
5:53 PM 86.0 °F 90.1 °F 69.1 °F 57% 29.80 in 10.0 mi South 13.8 mph - N/A   Scattered Clouds
6:53 PM 84.0 °F 87.8 °F 69.1 °F 61% 29.80 in 10.0 mi South 9.2 mph - N/A   Clear
7:53 PM 81.0 °F 84.4 °F 70.0 °F 69% 29.81 in 10.0 mi South 8.1 mph - N/A   Clear
8:01 PM 81.0 °F 84.4 °F 70.0 °F 69% 29.84 in 10.0 mi South 8.1 mph - N/A Thunderstorm Clear
8:16 PM 80.1 °F 83.2 °F 70.0 °F 71% 29.84 in 10.0 mi South 6.9 mph - N/A   Clear
8:53 PM 79.0 °F - 70.0 °F 74% 29.83 in 10.0 mi SSE 6.9 mph - N/A   Clear
9:53 PM 79.0 °F - 69.1 °F 72% 29.83 in 10.0 mi SE 6.9 mph - N/A   Scattered Clouds
10:53 PM 78.1 °F - 69.1 °F 74% 29.84 in 10.0 mi South 4.6 mph - N/A   Mostly Cloudy
11:53 PM 77.0 °F - 69.1 °F 76% 29.84 in 10.0 mi SSE 4.6 mph - N/A   Overcast